Home   Weather   Sinsheim   Past weeks
Flag for Germany

Past Weather in Sinsheim, Baden-Württemberg, Germany — Yesterday and Last 2 Weeks

Now
73 °F

Sunny.


Feels Like: 76 °F
Forecast: 72 / 45 °F
Wind: 9 mph from Northeast

Location: Mannheim City

Current Time: Apr 7, 2020 at 7:56:43 pm

Latest Report: Apr 7, 2020 at 7:20 pm


Visibility: 10 mi

Pressure: 30.30 "Hg

Humidity: 27%

Dew Point: 37 °F

Location of SinsheimLocation

Past Weather in Sinsheim — Graph

°F

Sinsheim Temperature Yesterday

Maximum temperature yesterday: 73 °F (at 3:20 pm)
Minimum temperature yesterday: 41 °F (at 7:20 am)
Average temperature yesterday: 62 °F

High & Low Weather Summary for the Past Weeks

 TemperatureHumidityPressure
High75 °F (Apr 7, 3:20 pm)81% (Apr 7, 7:20 am)30.51 "Hg (Apr 7, 7:20 am)
Low30 °F (Mar 30, 7:20 am)21% (Mar 25, 1:20 pm)29.83 "Hg (Apr 2, 5:20 pm)
Average50 °F41%30.19 "Hg
* Reported Mar 23 5:20 pm — Apr 7 6:50 pm, Sinsheim. Weather by CustomWeather, © 2020

Note: Actual official high and low records may vary slightly from our data, if they occured in-between our weather recording intervals... More about our weather records

Sinsheim Weather History for the Previous 24 Hours

Scroll right to see more
 ConditionsComfort  
Time TempWeatherWind HumidityBarometerVisibility
6:50 pm
Tue, Apr 7
73 °FPassing clouds.10 mph27%30.30 "HgN/A
6:20 pm73 °FSunny.12 mph27%30.30 "Hg10 mi
5:50 pm75 °FPassing clouds.12 mph25%30.30 "HgN/A
5:20 pm75 °FPassing clouds.9 mph25%30.30 "HgN/A
4:50 pm75 °FPassing clouds.8 mph25%30.33 "HgN/A
4:20 pm75 °FSunny.3 mph25%30.33 "Hg10 mi
3:20 pm75 °FPassing clouds.6 mph31%30.36 "HgN/A
2:20 pm73 °FSunny.2 mph31%30.36 "Hg10 mi
1:50 pm72 °FPassing clouds.5 mph31%30.39 "HgN/A
1:20 pm70 °FPassing clouds.5 mph35%30.39 "HgN/A
12:50 pm70 °FSunny.3 mph35%30.39 "Hg10 mi
12:20 pm68 °FSunny.2 mph35%30.42 "Hg10 mi
11:50 am66 °FSunny.1 mph40%30.42 "Hg10 mi
11:20 am64 °FSunny.1 mph40%30.42 "Hg10 mi
10:50 am63 °FSunny.1 mph45%30.42 "Hg10 mi
10:20 am59 °FSunny.2 mph48%30.42 "Hg10 mi
9:50 am57 °FSunny.1 mph51%30.42 "Hg10 mi
9:20 am55 °FSunny.1 mph51%30.42 "Hg10 mi
8:50 am54 °FSunny.No wind58%30.39 "Hg10 mi
8:20 am50 °FSunny.1 mph67%30.39 "Hg10 mi
7:50 am46 °FSunny.No wind71%30.39 "Hg10 mi
7:20 am43 °FSunny.No wind81%30.39 "Hg10 mi
12:20 am48 °FClear.No wind71%30.30 "Hg10 mi
11:50 pm
Mon, Apr 6
50 °FClear.1 mph67%30.27 "Hg10 mi
8:50 pm59 °FRefreshingly cool.No wind48%30.21 "HgN/A
8:20 pm63 °FClear.1 mph39%30.21 "Hg10 mi
7:50 pm72 °FPassing clouds.5 mph23%30.21 "HgN/A
7:20 pm72 °FPassing clouds.6 mph23%30.18 "HgN/A
Weather by CustomWeather, © 2020

See weather overview

Advertising